Zurück zum Katalog

SL-12 R/B(2)

AktivGEO
NORAD 22044·ROCKET BODY·🇷🇺 Russia

Gestartet Jul 14, 1992 von Baikonur Cosmodrome

Loading…

TLE

AktuellSource: Space-Track

Epoche: Aug 29, 2026, 18:12 UTC

1 22044U 92043D   26241.75835155 -.00000072  00000-0  00000+0 0  9993
2 22044  14.5878 346.0331 0024701 201.6892 106.1559  0.97830389120275

Verfolge SL-12 R/B(2) in Echtzeit mit AllMySat

Download on the App Store